User: anonymous   Login
Location: Twentynine Palms Airport
(34.1316°N, 115.9458°W)
Time: 10:22:00
(UTC-08:00)
Language:

Oscar 19 - Orbit

View from above orbital plane
View from above orbital plane
View from above satellite
View from above satellite

Ground track
Ground track

The orbit data is extracted from the following two-line orbital elements,

1 20442U 90005G   16339.38576705  .00000018  00000-0  22516-4 0  9998
2 20442  98.5585 272.0592 0011982   8.8705 351.2688 14.32840955403720
Epoch (UTC): 04 December 2016 09:15:30
Eccentricity: 0.0011982
inclination: 98.5585°
perigee height: 773 km
apogee height: 791 km
right ascension of ascending node: 272.0592°
argument of perigee: 8.8705°
revolutions per day: 14.32840955
mean anomaly at epoch: 351.2688°
orbit number at epoch: 40372

The dashed part of the orbit path shows where the satellite is in the earth's shadow,  

DLR